Regional Weather Roundup
Issued by NWS

Home | Current Version | Previous Version | Graphics & Text | Print | Product List | Glossary On
Versions: 1 2 3 4 5 6 7 8 9 10 11 12 13 14 15 16 17 18 19 20 21 22 23 24 25 26 27 28 29 30 31 32 33 34 35 36 37 38 39 40 41 42 43 44 45 46 47 48 49 50
000
ASUS45 KCYS 040610
RWRWY

WYOMING REGIONAL WEATHER ROUNDUP
NATIONAL WEATHER SERVICE CHEYENNE WY
1200 AM MDT TUE AUG 04 2015

NOTE:  "FAIR" INDICATES FEW OR NO CLOUDS BELOW 12,000 FEET
WITH NO SIGNIFICANT WEATHER AND/OR OBSTRUCTIONS TO VISIBILITY.

WYZ001-040700-
YELLOWSTONE NATIONAL PARK

CITY           SKY/WX    TMP DP  RH WIND       PRES   REMARKS
LK YELLOWSTONE   N/A     51  47  86 CALM      30.24F
6HR MIN TEMP:  51; 6HR MAX TEMP:  67; 6HR PCP:  0.18;

W YELLOWSTONE  NOT AVBL

$$
WYZ002>013-054>058-071-098>099-040700-
NORTHERN WYOMING

CITY           SKY/WX    TMP DP  RH WIND       PRES   REMARKS
JACKSON        NOT AVBL
CODY           FAIR      66  52  59 S12       30.01F
GREYBULL       MOCLDY    69  48  47 E5        29.95R
6HR MIN TEMP:  68; 6HR MAX TEMP:  90;

WORLAND        FAIR      64  51  62 E6        29.96F
6HR MIN TEMP:  64; 6HR MAX TEMP:  83; 6HR PCP: TRACE;

SHERIDAN       FAIR      78  42  27 S28G37    29.88F
6HR MIN TEMP:  73; 6HR MAX TEMP:  87;

BUFFALO        FAIR      67  49  52 W20       29.99F
6HR MIN TEMP:  64; 6HR MAX TEMP:  82; 6HR PCP: TRACE;

GILLETTE       FAIR      67  49  52 CALM      29.96F
6HR MIN TEMP:  66; 6HR MAX TEMP:  85;

HULETT         FAIR      66  55  68 S7        30.00S
NEWCASTLE      FAIR      72  52  49 N12       29.99F

$$
WYZ014>020-022>026-101>103-040700-
CENTRAL WYOMING

CITY           SKY/WX    TMP DP  RH WIND       PRES   REMARKS
BIG PINEY      LGT RAIN  56  54  93 NW5       30.17F
6HR MIN TEMP:  55; 6HR MAX TEMP:  58; 6HR PCP:  0.20;

PINEDALE       RAIN      54  54 100 NW5       30.18S
DUBOIS         CLOUDY    52  50  93 NE3       30.18F
LANDER         LGT RAIN  59  55  87 W5        30.06F
6HR MIN TEMP:  58; 6HR MAX TEMP:  63; 6HR PCP:  0.30;

RIVERTON       MOCLDY    60  57  89 NW5       30.07F
6HR MIN TEMP:  60; 6HR MAX TEMP:  69; 6HR PCP:  0.02;

CASPER         MOCLDY    58  54  86 N3        30.05F
6HR MIN TEMP:  58; 6HR MAX TEMP:  69; 6HR PCP: TRACE;

DOUGLAS        FAIR      61  47  59 N5        30.03F
6HR MIN TEMP:  61; 6HR MAX TEMP:  76;


$$
WYZ021-027>030-104>119-040700-
SOUTHERN WYOMING

CITY           SKY/WX    TMP DP  RH WIND       PRES   REMARKS
EVANSTON       FAIR      51  49  92 SW10      30.22S
6HR MIN TEMP:  51; 6HR MAX TEMP:  58; 6HR PCP: TRACE;

KEMMERER       CLOUDY    52  50  93 W7        30.20F
FORT BRIDGER   CLEAR     54  54 100 W6        30.23S
ROCK SPRINGS   LGT RAIN  54  51  90 SW14      30.16S
6HR MIN TEMP:  54; 6HR MAX TEMP:  59; 6HR PCP:  0.03;

DIXON          CLOUDY    59  53  83 SW5       30.21S
RAWLINS        CLOUDY    57  54  89 SW8       30.16F
6HR MIN TEMP:  57; 6HR MAX TEMP:  73; 6HR PCP:  0.20;

SARATOGA       CLOUDY    55  52  88 W6        30.20R
LARAMIE        FAIR      54  50  86 W6        30.18F
6HR MIN TEMP:  54; 6HR MAX TEMP:  74;

CHEYENNE       FAIR      64  47  53 SW5       30.13F
6HR MIN TEMP:  64; 6HR MAX TEMP:  79;

TORRINGTON     FAIR      74  51  44 SW14      29.98S
6HR MIN TEMP:  74; 6HR MAX TEMP:  86;

PINE BLUFFS    FAIR      64  50  59 S8        30.09S

$$



USA.gov is the U.S. government's official web portal to all federal, state and local government web resources and services.